When you browse on this site, cookies collect data to enhance your experience and personalize the content and advertising you see.
Visit our Privacy Policy to learn more. By continuing to use the site, you agree to this use of cookies and data.
  • In United Kingdom
  • List of Countries
  • For 7 days
  • Water Temperature
  • Weather Map
  • Weather Widgets
  • user-avatar
    Login

    Hourly Weather La Vega

    Today, 7 April, Tuesday

    Time Temperature Precipitation Wind Pressure Humidity
    00:00 +13°C° 0.1 mm 1 mps 570 mmHg 93%
    01:00 +13°C° 0.1 mm 1 mps 570 mmHg 93%
    02:00 +13°C° 0.1 mm 1 mps 570 mmHg 93%
    03:00 +13°C° 0.1 mm 1 mps 570 mmHg 93%
    04:00 +13°C° 0.1 mm 1 mps 569 mmHg 93%
    05:00 +13°C° 0 mm 1 mps 570 mmHg 93%
    06:00 +14°C° 0 mm 1 mps 570 mmHg 92%
    07:00 +14°C° 0 mm 1 mps 571 mmHg 92%
    08:00 +15°C° 0.3 mm 1 mps 572 mmHg 89%
    09:00 +16°C° 0.3 mm 1 mps 573 mmHg 86%
    10:00 +19°C° 0.3 mm 1 mps 574 mmHg 82%
    11:00 +20°C° 0.7 mm 1 mps 574 mmHg 79%
    12:00 +21°C° 0.7 mm 1 mps 573 mmHg 75%
    13:00 +22°C° 0.7 mm 1 mps 573 mmHg 71%
    14:00 +21°C° 0.9 mm 1 mps 572 mmHg 73%
    15:00 +21°C° 0.9 mm 1 mps 571 mmHg 76%
    16:00 +20°C° 0.9 mm 1 mps 571 mmHg 78%
    17:00 +19°C° 1 mm 1 mps 570 mmHg 83%
    18:00 +16°C° 1 mm 1 mps 570 mmHg 89%
    19:00 +14°C° 1 mm 1 mps 569 mmHg 94%
    20:00 +14°C° 0.6 mm 1 mps 570 mmHg 94%
    21:00 +14°C° 0.6 mm 1 mps 570 mmHg 94%
    22:00 +13°C° 0.6 mm 1 mps 570 mmHg 94%
    23:00 +13°C° 0.1 mm 1 mps 570 mmHg 94%

    Tomorrow, 8 April, Wednesday

    Time Temperature Precipitation Wind Pressure Humidity
    00:00 +13°C° 0.1 mm 1 mps 570 mmHg 94%
    01:00 +13°C° 0.1 mm 1 mps 569 mmHg 94%
    02:00 +13°C° 0 mm 1 mps 569 mmHg 93%
    03:00 +13°C° 0 mm 1 mps 569 mmHg 93%
    04:00 +13°C° 0 mm 1 mps 569 mmHg 93%
    05:00 +13°C° 0 mm 1 mps 569 mmHg 93%
    06:00 +14°C° 0 mm 1 mps 570 mmHg 92%
    07:00 +13°C° 0 mm 0 mps 570 mmHg 92%
    08:00 +15°C° 0.2 mm 1 mps 571 mmHg 89%
    09:00 +16°C° 0.2 mm 1 mps 572 mmHg 87%
    10:00 +18°C° 0.2 mm 1 mps 573 mmHg 84%
    11:00 +18°C° 0.9 mm 1 mps 572 mmHg 86%
    12:00 +18°C° 0.9 mm 1 mps 571 mmHg 87%
    13:00 +18°C° 0.9 mm 1 mps 571 mmHg 88%
    14:00 +18°C° 0.5 mm 1 mps 571 mmHg 87%
    15:00 +18°C° 0.5 mm 1 mps 570 mmHg 85%
    16:00 +18°C° 0.5 mm 1 mps 570 mmHg 84%
    17:00 +16°C° 0.3 mm 1 mps 570 mmHg 87%
    18:00 +15°C° 0.3 mm 1 mps 570 mmHg 91%
    19:00 +14°C° 0.3 mm 1 mps 569 mmHg 94%
    20:00 +14°C° 0.1 mm 1 mps 570 mmHg 94%
    21:00 +13°C° 0.1 mm 1 mps 570 mmHg 93%
    22:00 +13°C° 0.1 mm 1 mps 570 mmHg 92%
    23:00 +13°C° 0.2 mm 1 mps 570 mmHg 92%

    Day after tomorrow, 9 April, Thursday

    Time Temperature Precipitation Wind Pressure Humidity
    00:00 +13°C° 0.2 mm 1 mps 570 mmHg 92%
    01:00 +13°C° 0.2 mm 1 mps 569 mmHg 92%
    02:00 +13°C° 0.2 mm 1 mps 569 mmHg 93%
    03:00 +13°C° 0.2 mm 1 mps 569 mmHg 93%
    04:00 +13°C° 0.2 mm 1 mps 568 mmHg 94%
    05:00 +13°C° 0.1 mm 1 mps 569 mmHg 93%
    06:00 +13°C° 0.1 mm 1 mps 569 mmHg 93%
    07:00 +13°C° 0.1 mm 1 mps 569 mmHg 93%
    08:00 +14°C° 0.1 mm 1 mps 570 mmHg 90%
    09:00 +16°C° 0.1 mm 1 mps 571 mmHg 87%
    10:00 +18°C° 0.1 mm 1 mps 572 mmHg 84%
    11:00 +16°C° 0.7 mm 0 mps 572 mmHg 86%
    12:00 +15°C° 0.7 mm 0 mps 571 mmHg 88%
    13:00 +15°C° 0.7 mm 0 mps 570 mmHg 89%
    14:00 +15°C° 0.5 mm 0 mps 570 mmHg 90%
    15:00 +16°C° 0.5 mm 1 mps 570 mmHg 91%
    16:00 +16°C° 0.5 mm 1 mps 569 mmHg 92%
    17:00 +15°C° 0.3 mm 1 mps 569 mmHg 93%
    18:00 +14°C° 0.3 mm 1 mps 569 mmHg 94%
    19:00 +14°C° 0.3 mm 1 mps 569 mmHg 95%
    20:00 +13°C° 0 mm 1 mps 569 mmHg 94%
    21:00 +13°C° 0 mm 1 mps 570 mmHg 93%
    22:00 +13°C° 0 mm 1 mps 570 mmHg 93%
    23:00 +13°C° 0 mm 1 mps 569 mmHg 92%

    10 April, Friday

    Time Temperature Precipitation Wind Pressure Humidity
    00:00 +12°C° 0 mm 0 mps 569 mmHg 92%
    01:00 +12°C° 0 mm 0 mps 569 mmHg 91%
    02:00 +12°C° 0 mm 0 mps 569 mmHg 92%
    03:00 +12°C° 0 mm 0 mps 569 mmHg 92%
    04:00 +13°C° 0 mm 1 mps 569 mmHg 92%
    05:00 +13°C° 0 mm 1 mps 569 mmHg 91%
    06:00 +13°C° 0 mm 1 mps 570 mmHg 91%
    07:00 +13°C° 0 mm 1 mps 570 mmHg 90%
    08:00 +15°C° 0.1 mm 1 mps 571 mmHg 86%
    09:00 +18°C° 0.1 mm 1 mps 572 mmHg 81%
    10:00 +19°C° 0.1 mm 1 mps 573 mmHg 76%
    11:00 +20°C° 0.9 mm 1 mps 572 mmHg 77%
    12:00 +20°C° 0.9 mm 1 mps 572 mmHg 79%
    13:00 +20°C° 0.9 mm 1 mps 571 mmHg 80%
    14:00 +20°C° 1.4 mm 1 mps 571 mmHg 82%
    15:00 +17°C° 1.4 mm 0 mps 570 mmHg 85%
    16:00 +17°C° 1.4 mm 0 mps 570 mmHg 87%
    17:00 +16°C° 1.3 mm 0 mps 569 mmHg 90%
    18:00 +14°C° 1.3 mm 0 mps 569 mmHg 93%
    19:00 +14°C° 1.3 mm 1 mps 569 mmHg 96%
    20:00 +14°C° 1.2 mm 1 mps 570 mmHg 97%
    21:00 +14°C° 1.2 mm 1 mps 570 mmHg 97%
    22:00 +13°C° 1.2 mm 1 mps 570 mmHg 97%
    23:00 +12°C° 1.1 mm 0 mps 570 mmHg 97%

    11 April, Saturday

    Time Temperature Precipitation Wind Pressure Humidity
    00:00 +12°C° 1.1 mm 0 mps 570 mmHg 97%
    01:00 +12°C° 1.1 mm 0 mps 570 mmHg 96%
    02:00 +12°C° 0.6 mm 0 mps 569 mmHg 96%
    03:00 +12°C° 0.6 mm 0 mps 569 mmHg 96%
    04:00 +12°C° 0.6 mm 0 mps 569 mmHg 96%
    05:00 +12°C° 0.7 mm 0 mps 570 mmHg 96%
    06:00 +12°C° 0.7 mm 0 mps 570 mmHg 96%
    07:00 +12°C° 0.7 mm 0 mps 570 mmHg 96%
    08:00 +13°C° 0.2 mm 0 mps 571 mmHg 95%
    09:00 +14°C° 0.2 mm 0 mps 571 mmHg 93%
    10:00 +14°C° 0.2 mm 0 mps 572 mmHg 91%
    11:00 +15°C° 0.7 mm 0 mps 572 mmHg 89%
    12:00 +16°C° 0.7 mm 0 mps 571 mmHg 87%
    13:00 +16°C° 0.7 mm 0 mps 571 mmHg 85%
    14:00 +16°C° 1 mm 0 mps 570 mmHg 86%
    15:00 +16°C° 1 mm 0 mps 570 mmHg 87%
    16:00 +15°C° 1 mm 0 mps 569 mmHg 88%
    17:00 +15°C° 0.8 mm 0 mps 569 mmHg 90%
    18:00 +14°C° 0.8 mm 0 mps 570 mmHg 92%
    19:00 +14°C° 0.8 mm 1 mps 570 mmHg 93%
    20:00 +13°C° 1.3 mm 0 mps 570 mmHg 95%
    21:00 +13°C° 1.3 mm 0 mps 570 mmHg 96%
    22:00 +12°C° 1.3 mm 0 mps 570 mmHg 97%
    23:00 +12°C° 1.6 mm 0 mps 570 mmHg 98%

    12 April, Sunday

    Time Temperature Precipitation Wind Pressure Humidity
    00:00 +12°C° 1.6 mm 0 mps 570 mmHg 98%
    01:00 +12°C° 1.6 mm 0 mps 570 mmHg 98%
    02:00 +12°C° 1.2 mm 0 mps 570 mmHg 98%
    03:00 +12°C° 1.2 mm 0 mps 569 mmHg 98%
    04:00 +12°C° 1.2 mm 0 mps 569 mmHg 98%
    05:00 +12°C° 0.7 mm 0 mps 570 mmHg 98%
    06:00 +12°C° 0.7 mm 0 mps 570 mmHg 97%
    07:00 +12°C° 0.7 mm 0 mps 570 mmHg 96%
    08:00 +13°C° 0.2 mm 0 mps 571 mmHg 94%
    09:00 +14°C° 0.2 mm 0 mps 572 mmHg 92%
    10:00 +15°C° 0.2 mm 0 mps 572 mmHg 90%
    11:00 +16°C° 0.8 mm 1 mps 572 mmHg 88%
    12:00 +18°C° 0.8 mm 1 mps 572 mmHg 85%
    13:00 +19°C° 0.8 mm 1 mps 572 mmHg 83%
    14:00 +19°C° 1.1 mm 1 mps 571 mmHg 85%
    15:00 +16°C° 1.1 mm 0 mps 571 mmHg 87%
    16:00 +15°C° 1.1 mm 0 mps 570 mmHg 89%
    17:00 +15°C° 1.2 mm 0 mps 570 mmHg 91%
    18:00 +15°C° 1.2 mm 1 mps 570 mmHg 93%
    19:00 +14°C° 1.2 mm 1 mps 570 mmHg 94%
    20:00 +14°C° 1 mm 1 mps 570 mmHg 95%
    21:00 +12°C° 1 mm 0 mps 571 mmHg 95%
    22:00 +12°C° 1 mm 0 mps 571 mmHg 96%
    23:00 +12°C° 0.5 mm 0 mps 571 mmHg 95%
    Show more